Location: Eschertshofen
(49.3064°N, 11.5756°E)
Time: 12:09:38
(UTC+00:00)

MetOp-A - Pass Details

Date: 18 September 2020
Orbit: 820 x 821 km, 98.5° (Epoch: 26 October)

Event Time Altitude Azimuth Distance (km) Brightness Sun altitude
Exits shadow 18:22:25 - 140° (SE) 2,555 6.2 -10.9°
Reaches altitude 10° 18:22:47 10° 138° (SE) 2,414 6.1 -11.0°
Maximum altitude 18:27:52 46° 67° (ENE) 1,096 4.5 -11.8°
Drops below altitude 10° 18:32:58 10° 356° (N) 2,430 6.9 -12.6°
Sets 18:35:24 0° 350° (N) 3,367 7.7 -13.0°
